Dunkirk, NY

9:34 AM EST on November 21, 2017 (GMT -0500)
Chautauqua County-Dunkirk

Weather History for KDKK - February, 2013

Change the Weather History Date:

Thursday, February 14, 2013

  Actual Average Record
Temperature  
Mean Temperature 32 °F -  
Max Temperature 39 °F 32 °F 63 °F (1938)
Min Temperature 25 °F 18 °F -11 °F (1979)
Degree Days  
Heating Degree Days 33    
Moisture  
Dew Point 28 °F    
Average Humidity 78    
Maximum Humidity 89    
Minimum Humidity 65    
Precipitation  
Precipitation 0.04 in - - ()
Sea Level Pressure  
Sea Level Pressure 29.83 in    
Wind  
Wind Speed 12 mph (SSW)    
Max Wind Speed 25 mph    
Max Gust Speed 37 mph    
Visibility 9 miles    
Events Rain    
Averages and records for this station are not official NWS values.
T = Trace of Precipitation, MM = Missing Value Source: NWS Daily Summary

Daily Weather History Graph

Daily Weather History Graph

Search for Another Location

Airport or City:

Trip Planner

Search our weather history database for the weather conditions in past years. The results will help you decide how hot, cold, wet, or windy it might be!

Date:

Astronomy

Feb. 14, 2013 Rise Set
Actual Time 7:14 AM EST 5:48 PM EST
Civil Twilight 6:45 AM EST 6:17 PM EST
Nautical Twilight 6:12 AM EST 6:50 PM EST
Astronomical Twilight 5:40 AM EST 7:22 PM EST
Moon 9:08 AM EST (2/14) 10:57 PM EST (2/14)
Length of Visible Light 11h 31m
Length of Day
10h 33m
Waxing Crescent, 21% of the Moon is Illuminated
Feb 14
Waxing Crescent
Feb 17
First Quarter
Feb 25
Full
Mar 4
Last Quarter
Mar 11
New

Hourly Weather History & Observations

Time (EST) Temp. Windchill Dew Point Humidity Pressure Visibility Wind Dir Wind Speed Gust Speed Precip Events Conditions
12:53 AM 28.9 °F 21.1 °F 24.1 °F 82% 29.85 in 10.0 mi SW 8.1 mph - N/A   Overcast
1:53 AM 28.9 °F 20.4 °F 23.0 °F 78% 29.86 in 10.0 mi SW 9.2 mph - N/A   Overcast
2:53 AM 28.9 °F 21.1 °F 23.0 °F 78% 29.87 in 10.0 mi SW 8.1 mph - N/A   Overcast
3:53 AM 28.0 °F 20.8 °F 23.0 °F 81% 29.88 in 10.0 mi SSW 6.9 mph - N/A   Overcast
4:53 AM 26.1 °F 17.6 °F 19.9 °F 78% 29.89 in 10.0 mi South 8.1 mph - N/A   Partly Cloudy
5:53 AM 25.0 °F 18.1 °F 19.9 °F 81% 29.90 in 10.0 mi South 5.8 mph - N/A   Clear
6:53 AM 26.1 °F 19.4 °F 19.9 °F 78% 29.90 in 10.0 mi South 5.8 mph - N/A   Mostly Cloudy
7:53 AM 28.0 °F 15.7 °F 19.9 °F 72% 29.90 in 10.0 mi South 17.3 mph 23.0 mph N/A   Clear
8:53 AM 30.9 °F 20.7 °F 21.9 °F 69% 29.90 in 9.0 mi South 13.8 mph - N/A   Clear
9:53 AM 33.1 °F 21.9 °F 24.1 °F 70% 29.89 in 9.0 mi South 18.4 mph 23.0 mph N/A   Clear
10:53 AM 34.0 °F 23.8 °F 25.0 °F 70% 29.88 in 8.0 mi South 16.1 mph 21.9 mph N/A   Overcast
11:53 AM 36.0 °F 26.3 °F 27.0 °F 70% 29.87 in 8.0 mi South 16.1 mph - N/A   Scattered Clouds
12:53 PM 37.0 °F 29.3 °F 28.0 °F 70% 29.85 in 8.0 mi South 11.5 mph 24.2 mph N/A   Scattered Clouds
1:53 PM 37.9 °F 30.0 °F 28.9 °F 70% 29.83 in 8.0 mi South 12.7 mph 19.6 mph N/A   Overcast
2:53 PM 37.9 °F 29.2 °F 30.0 °F 73% 29.82 in 9.0 mi SSW 15.0 mph 27.6 mph N/A   Overcast
3:53 PM 37.9 °F 29.2 °F 30.9 °F 76% 29.81 in 8.0 mi SSW 15.0 mph 23.0 mph N/A   Overcast
4:13 PM 37.4 °F 29.3 °F 30.2 °F 75% 29.79 in 8.0 mi South 12.7 mph - 0.00 in   Overcast
4:53 PM 37.0 °F 29.3 °F 32.0 °F 82% 29.81 in 8.0 mi SSW 11.5 mph 19.6 mph 0.00 in   Overcast
5:53 PM 37.0 °F 29.8 °F 30.9 °F 79% 29.81 in 10.0 mi SSW 10.4 mph 20.7 mph N/A   Overcast
6:28 PM 37.4 °F 28.9 °F 32.0 °F 81% 29.79 in 10.0 mi SSW 13.8 mph 21.9 mph 0.00 in Rain Light Rain
6:53 PM 37.0 °F 28.9 °F 32.0 °F 82% 29.82 in 8.0 mi SW 12.7 mph 23.0 mph 0.00 in Rain Light Rain
7:53 PM 36.0 °F 27.5 °F 33.1 °F 89% 29.83 in 8.0 mi SSW 12.7 mph 18.4 mph 0.03 in Rain Light Rain
8:33 PM 37.4 °F 28.5 °F 33.8 °F 87% 29.79 in 10.0 mi SSW 15.0 mph - 0.00 in Rain Light Rain
8:40 PM 37.4 °F 28.5 °F 33.8 °F 87% 29.79 in 10.0 mi SSW 15.0 mph - 0.00 in Rain Light Rain
8:53 PM 37.0 °F 28.5 °F 33.1 °F 86% 29.81 in 10.0 mi SSW 13.8 mph 20.7 mph 0.00 in   Overcast
9:32 PM 37.4 °F 26.9 °F 33.8 °F 87% 29.79 in 9.0 mi SSW 20.7 mph 27.6 mph 0.01 in Rain Light Rain
9:50 PM 37.4 °F 30.8 °F 33.8 °F 87% 29.78 in 10.0 mi South 9.2 mph - 0.01 in Rain Light Rain
9:53 PM 37.0 °F 29.8 °F 33.1 °F 86% 29.80 in 10.0 mi South 10.4 mph - 0.01 in Rain Light Rain
10:16 PM 37.4 °F 29.3 °F 33.8 °F 87% 29.78 in 10.0 mi SSW 12.7 mph - 0.00 in Rain Light Rain
10:53 PM 39.9 °F 30.5 °F 33.1 °F 77% 29.81 in 10.0 mi WSW 19.6 mph 28.8 mph 0.00 in   Overcast
11:05 PM 39.2 °F 29.3 °F 32.0 °F 75% 29.79 in 10.0 mi SW 20.7 mph 36.8 mph N/A   Overcast
11:53 PM 37.9 °F 26.6 °F 27.0 °F 65% 29.81 in 10.0 mi WSW 25.3 mph 34.5 mph N/A   Overcast